Wind_Speed
12 12 12 13 13 13 13 13 12 12 12 12 12 12 12 12 12 12 12 12 13 13 13 13 13 13 13 14 14 15 15 14 15 15 16 16 16 16 17 17 17 17 18
13 13 12 13 13 13 13 13 13 12 12 12 12 13 12 13 12 13 12 12 13 13 13 13 13 13 14 14 15 15 15 15 15 16 16 16 16 17 18 18 18 18 18
12 12 12 12 13 13 14 14 14 14 13 13 13 13 13 13 13 13 13 14 14 13 13 13 13 14 14 14 15 15 15 15 16 16 17 17 17 18 18 18 18 18 19
13 13 13 13 13 13 14 14 14 14 14 14 14 14 14 14 15 15 15 15 15 14 14 14 14 15 15 15 15 15 16 16 17 17 18 18 18 18 19 19 19 19 20
14 13 13 13 14 14 15 14 14 14 14 14 14 15 15 15 16 16 16 16 16 16 15 15 15 15 15 16 16 16 17 17 18 18 18 19 19 20 20 20 20 20 20
15 15 15 15 15 15 15 15 15 15 14 14 15 15 15 16 16 17 17 16 16 17 16 17 17 16 16 17 17 17 18 18 18 19 19 20 21 21 21 21 21 21 21
16 16 15 16 16 16 16 17 16 16 16 16 16 17 17 17 17 17 17 17 18 18 18 18 18 18 18 18 19 19 20 20 20 21 22 22 22 22 22 22 21 21 22
17 16 16 16 16 17 17 17 17 17 17 17 18 18 18 18 18 18 18 19 19 19 19 20 20 19 19 20 21 21 21 21 22 23 23 24 24 24 23 23 22 22 22
17 17 18 18 18 18 18 18 18 19 19 19 19 18 19 19 20 20 20 20 20 20 20 20 20 20 21 21 22 22 23 23 23 24 24 25 25 24 24 24 23 22 22
17 18 18 19 19 18 18 18 19 20 19 19 19 19 20 20 21 21 22 21 21 21 21 21 21 21 22 22 23 23 24 24 25 25 25 25 25 25 25 24 24 24 23
18 18 18 19 19 19 20 20 20 20 20 20 20 20 21 21 21 22 22 22 22 22 22 22 23 23 23 24 24 25 25 25 25 26 26 25 25 26 26 27 27 26 25
18 18 18 19 20 20 20 20 21 20 20 20 21 21 21 22 22 23 23 23 23 24 24 25 25 25 25 25 25 25 25 26 26 26 26 27 27 27 28 28 28 27 27
18 18 19 19 20 20 20 20 21 21 21 21 21 22 22 23 23 24 24 24 24 25 26 26 26 25 26 26 26 26 26 26 26 27 27 27 27 27 27 28 28 29 28
20 19 19 20 20 20 20 21 21 22 22 22 22 23 23 23 24 24 24 24 25 25 26 26 26 27 27 27 27 27 26 26 26 26 27 27 27 27 27 28 28 29 29
20 20 20 20 21 21 21 21 21 22 22 23 23 23 24 24 25 25 25 25 26 26 26 27 27 27 28 28 27 27 27 27 27 27 27 27 27 28 28 29 29 29 29
21 21 21 21 22 22 22 21 22 22 23 24 24 24 24 25 25 25 25 25 26 26 26 27 28 28 28 28 27 27 26 27 27 27 28 28 28 29 30 30 29 29 29
22 22 22 22 23 23 23 22 23 23 23 24 24 25 25 25 25 25 25 26 26 26 26 27 26 27 27 26 27 27 27 28 28 28 28 29 29 29 30 31 30 29 29
23 23 23 23 23 24 24 24 24 24 24 24 24 25 25 25 25 25 25 26 26 25 25 26 25 26 26 26 26 26 27 27 28 29 29 29 29 30 30 30 29 28 27
25 24 24 24 24 24 25 25 25 25 25 25 25 25 25 25 25 25 25 25 25 25 25 25 24 25 26 26 27 27 27 28 29 29 29 29 29 28 28 28 28 27 26
26 25 24 24 25 25 25 25 25 25 25 26 25 25 25 25 25 24 24 24 24 24 25 25 25 25 27 28 28 28 29 28 29 29 28 28 28 28 28 28 27 27 27
25 25 25 25 25 25 25 25 25 25 25 25 25 25 24 23 23 24 24 24 24 24 25 25 25 25 26 28 28 28 28 28 28 28 28 28 27 27 27 27 27 27 27
26 26 25 25 26 25 25 25 25 25 25 25 24 24 24 23 23 23 24 24 24 24 24 24 25 26 26 26 26 26 26 26 27 27 27 26 26 26 27 26 26 26 26
26 26 26 26 26 26 25 25 25 25 25 25 25 25 25 24 23 23 23 24 24 24 24 24 25 25 26 25 25 25 25 25 25 25 24 24 25 25 25 25 25 25 26
26 26 27 27 26 26 25 25 25 25 25 25 25 24 24 24 24 23 23 23 23 23 24 24 25 25 25 25 25 25 25 24 23 23 23 23 24 24 24 24 24 24 25
25 26 26 26 26 25 25 25 26 26 25 25 25 24 24 24 24 24 23 23 23 24 24 25 25 25 25 25 25 25 24 23 23 23 23 23 23 23 24 24 25 25 25
25 26 26 26 25 25 26 26 26 26 25 25 25 25 25 25 25 24 24 24 24 24 25 25 24 25 25 26 25 24 24 23 24 23 23 23 24 24 24 24 24 24 24
Wind_Direction
264 263 262 263 263 262 260 259 258 261 265 267 268 268 270 272 274 275 277 278 280 281 280 279 278 277 276 275 274 274 272 271 273 276 277 279 280 280 280 280 278 277 276
265 263 262 262 263 261 259 259 259 260 263 266 269 267 268 270 270 272 277 277 280 281 279 280 279 277 277 276 274 274 272 273 274 276 278 280 282 283 283 281 279 278 277
265 261 261 262 264 263 260 259 259 260 262 266 268 269 266 269 268 270 274 276 280 281 278 278 277 276 275 275 273 273 274 274 275 276 278 280 282 283 284 283 281 280 277
265 262 263 264 266 267 265 265 264 263 265 269 271 274 271 270 272 273 273 277 279 281 280 276 275 276 276 275 274 273 275 277 277 278 280 280 282 284 283 283 282 279 278
265 265 264 266 267 268 265 266 268 267 269 269 271 275 274 271 272 273 274 276 277 277 278 276 273 273 274 274 273 274 277 278 277 278 280 281 283 284 283 283 281 279 277
267 270 267 267 267 266 264 264 268 269 270 270 271 274 277 275 272 273 274 275 276 277 278 277 275 274 275 277 276 277 277 277 277 278 280 282 284 284 284 284 281 279 277
268 270 270 268 268 268 266 266 267 268 270 272 273 275 277 276 273 274 275 276 276 276 277 277 276 276 275 276 276 277 277 277 277 277 279 281 282 283 283 283 281 280 278
271 272 273 270 270 270 268 269 270 271 271 273 274 276 277 276 275 274 274 275 277 276 277 278 278 277 277 277 277 276 277 278 278 277 278 279 281 282 283 283 281 280 278
272 273 273 272 272 272 271 269 270 271 272 273 274 273 274 274 275 275 276 276 277 277 278 279 279 280 279 278 278 278 277 277 279 280 280 279 281 281 282 282 280 279 277
273 272 272 273 272 272 270 268 269 272 273 273 272 271 274 275 276 275 275 275 276 276 276 277 277 278 280 280 281 281 280 280 281 282 282 282 281 281 282 282 280 279 278
273 273 274 274 271 269 270 270 271 273 273 272 273 273 274 274 275 275 276 276 275 274 275 275 276 279 280 282 282 284 283 283 283 282 282 282 281 281 282 282 281 279 278
274 273 272 272 271 270 270 270 271 272 272 273 274 274 275 275 276 277 278 276 275 273 273 275 278 280 282 282 283 283 283 283 283 283 282 282 282 281 281 281 281 280 279
272 272 270 271 271 270 269 270 271 272 272 272 273 274 275 276 276 277 278 275 274 273 274 276 277 279 280 282 283 283 283 283 283 283 282 282 281 280 280 280 281 280 279
272 272 271 272 272 272 272 272 272 272 272 272 273 274 275 276 277 278 278 278 276 276 277 277 277 278 280 282 282 283 283 282 282 283 283 282 280 281 279 280 281 280 279
273 272 272 273 273 273 273 273 272 272 271 273 274 275 276 275 276 279 280 279 278 278 279 279 279 281 281 282 282 282 282 281 281 282 282 282 281 281 282 281 280 280 280
276 273 272 274 274 273 273 274 274 274 274 275 275 275 276 277 277 278 278 279 279 279 281 281 281 282 283 282 282 282 282 283 283 283 284 283 283 283 283 283 282 280 279
276 274 272 273 274 274 274 275 275 275 276 277 276 276 276 277 278 277 277 278 280 280 281 282 283 283 283 282 283 283 283 284 284 284 285 285 285 284 283 283 284 281 278
275 275 273 272 272 272 272 275 276 276 277 278 278 277 277 277 278 278 277 278 279 281 282 281 283 283 282 282 284 285 285 285 285 285 285 286 286 285 283 283 281 280 278
274 274 274 273 273 272 272 274 276 277 277 278 280 278 277 277 278 277 277 278 279 280 281 282 282 282 284 284 286 285 286 287 287 287 287 286 286 284 283 282 280 278 278
276 276 274 274 274 274 274 274 276 277 277 277 279 279 278 278 279 278 278 279 280 282 283 283 282 283 286 287 288 287 287 288 288 287 287 286 285 284 283 282 280 278 278
277 276 275 275 275 276 275 275 275 276 277 277 279 278 278 278 279 279 279 280 282 283 285 285 284 286 289 290 289 289 288 288 289 287 286 285 285 284 283 282 281 279 279
275 276 275 275 275 276 275 275 275 275 276 277 279 279 280 280 279 279 280 280 282 284 286 287 287 290 292 293 293 292 291 290 289 287 286 285 285 284 283 282 281 279 278
274 275 275 276 275 275 275 274 275 275 276 277 278 280 280 282 281 281 281 282 283 284 285 286 288 290 291 293 295 294 294 294 292 290 288 286 285 284 283 281 279 278 277
274 275 276 276 276 275 272 272 275 276 277 276 278 279 280 282 283 282 282 282 283 284 285 287 288 290 290 291 292 293 295 294 293 291 291 291 288 286 284 282 281 281 280
274 274 275 274 274 273 272 272 274 277 277 276 277 279 281 283 282 283 284 283 283 285 287 288 289 290 291 291 292 292 293 293 293 292 293 293 291 288 285 284 283 282 282
273 274 273 273 273 272 273 273 275 275 275 276 277 279 280 280 281 283 284 285 286 287 289 288 289 290 290 290 291 291 291 292 294 293 293 292 290 289 286 284 284 283 283
Height
5824 5824 5824 5824 5824 5824 5824 5824 5824 5824 5824 5825 5825 5825 5825 5825 5825 5825 5824 5824 5824 5823 5822 5821 5821 5820 5820 5820 5820 5820 5820 5820 5821 5821 5821 5820 5820 5820 5819 5819 5819 5818 5817
5820 5820 5820 5820 5821 5821 5820 5821 5821 5821 5821 5821 5821 5821 5822 5821 5821 5821 5821 5821 5820 5819 5819 5818 5817 5817 5816 5816 5816 5816 5817 5817 5817 5817 5817 5817 5817 5815 5815 5814 5814 5813 5813
5817 5817 5817 5817 5817 5817 5817 5817 5817 5817 5817 5817 5818 5818 5818 5818 5818 5818 5818 5817 5817 5816 5815 5814 5814 5813 5813 5813 5813 5813 5813 5813 5813 5813 5813 5813 5812 5811 5810 5809 5809 5808 5807
5814 5814 5814 5814 5813 5813 5813 5814 5814 5814 5814 5814 5814 5814 5814 5815 5815 5815 5814 5814 5813 5812 5812 5811 5810 5810 5810 5809 5809 5809 5809 5809 5809 5809 5808 5808 5807 5807 5806 5805 5803 5802 5802
5811 5811 5810 5810 5810 5810 5810 5810 5810 5810 5810 5810 5810 5811 5811 5811 5811 5810 5810 5810 5809 5809 5808 5807 5806 5806 5806 5806 5805 5805 5805 5805 5804 5804 5803 5803 5802 5801 5800 5799 5798 5797 5796
5807 5807 5807 5806 5806 5806 5806 5806 5807 5807 5807 5807 5807 5806 5806 5806 5806 5806 5806 5805 5805 5805 5804 5804 5803 5802 5802 5801 5801 5801 5800 5800 5800 5799 5798 5797 5797 5795 5794 5793 5792 5791 5791
5803 5803 5802 5802 5802 5802 5802 5802 5802 5803 5803 5803 5802 5802 5802 5802 5802 5801 5801 5801 5800 5800 5800 5799 5798 5798 5797 5796 5796 5796 5795 5794 5794 5793 5793 5792 5790 5789 5788 5787 5786 5786 5785
5799 5799 5798 5798 5798 5798 5798 5798 5798 5798 5798 5798 5798 5797 5797 5797 5797 5796 5796 5796 5795 5795 5794 5794 5793 5792 5792 5791 5790 5790 5789 5788 5788 5787 5786 5785 5784 5783 5782 5781 5780 5780 5779
5795 5794 5794 5794 5794 5793 5793 5793 5793 5793 5793 5793 5792 5792 5792 5791 5791 5791 5791 5790 5790 5789 5789 5788 5787 5786 5786 5785 5784 5783 5783 5782 5781 5780 5779 5778 5777 5776 5775 5774 5774 5774 5773
5790 5790 5789 5789 5789 5788 5788 5787 5787 5787 5787 5787 5787 5787 5786 5786 5785 5785 5784 5784 5784 5783 5783 5782 5781 5781 5780 5779 5778 5777 5776 5775 5774 5773 5772 5771 5770 5769 5768 5767 5766 5766 5766
5785 5784 5784 5783 5783 5783 5782 5782 5782 5782 5781 5781 5781 5781 5780 5780 5779 5778 5778 5777 5777 5777 5776 5776 5775 5774 5773 5772 5771 5770 5768 5767 5766 5765 5764 5763 5762 5761 5760 5759 5759 5758 5758
5780 5779 5779 5778 5777 5777 5777 5777 5776 5776 5775 5775 5775 5774 5774 5773 5773 5772 5771 5771 5770 5770 5769 5769 5768 5767 5766 5765 5763 5762 5761 5760 5758 5757 5756 5755 5754 5753 5752 5751 5750 5750 5749
5775 5774 5773 5773 5772 5771 5771 5771 5770 5770 5769 5769 5768 5768 5768 5767 5766 5765 5764 5764 5763 5763 5762 5761 5760 5759 5758 5757 5755 5754 5753 5752 5751 5749 5748 5747 5746 5745 5744 5743 5742 5742 5741
5769 5769 5768 5767 5766 5765 5765 5765 5764 5763 5763 5762 5762 5761 5761 5760 5759 5758 5757 5756 5755 5755 5754 5753 5752 5751 5749 5748 5747 5746 5745 5743 5742 5741 5739 5738 5737 5736 5735 5734 5733 5733 5732
5764 5763 5762 5761 5760 5760 5759 5758 5757 5757 5756 5756 5755 5754 5753 5752 5751 5751 5750 5748 5748 5747 5746 5745 5744 5742 5740 5739 5738 5737 5736 5734 5733 5732 5731 5729 5728 5727 5726 5725 5724 5723 5723
5757 5756 5756 5755 5754 5753 5752 5752 5751 5750 5750 5749 5748 5747 5746 5745 5744 5743 5742 5741 5740 5739 5738 5736 5735 5733 5731 5730 5729 5728 5726 5725 5724 5723 5722 5721 5719 5718 5717 5716 5714 5714 5713
5750 5749 5749 5748 5747 5746 5745 5745 5744 5743 5742 5742 5741 5739 5739 5737 5736 5735 5734 5733 5732 5731 5729 5728 5726 5724 5723 5721 5720 5719 5717 5716 5715 5714 5712 5711 5710 5708 5707 5706 5705 5704 5703
5743 5742 5741 5740 5740 5739 5738 5737 5737 5736 5735 5734 5733 5732 5730 5729 5728 5727 5726 5725 5724 5722 5721 5720 5718 5716 5715 5713 5711 5710 5709 5707 5705 5704 5703 5701 5700 5699 5698 5697 5696 5695 5694
5735 5734 5734 5733 5732 5731 5730 5730 5729 5728 5727 5726 5725 5724 5723 5722 5721 5719 5718 5717 5715 5714 5713 5712 5710 5708 5707 5705 5703 5701 5700 5698 5696 5694 5693 5692 5691 5690 5688 5688 5687 5687 5686
5728 5727 5726 5725 5724 5723 5723 5722 5721 5720 5719 5718 5717 5716 5715 5714 5713 5712 5711 5709 5708 5706 5705 5703 5702 5700 5699 5696 5694 5692 5691 5689 5687 5684 5683 5682 5681 5680 5679 5679 5678 5678 5677
5720 5719 5718 5717 5717 5716 5715 5714 5714 5713 5712 5711 5710 5708 5707 5706 5705 5704 5703 5702 5701 5699 5698 5696 5694 5693 5691 5688 5686 5684 5682 5680 5678 5676 5674 5673 5672 5671 5671 5670 5670 5669 5669
5712 5711 5710 5710 5709 5708 5707 5707 5706 5705 5705 5704 5703 5701 5700 5699 5698 5697 5696 5695 5693 5692 5690 5688 5687 5685 5683 5680 5678 5675 5673 5671 5669 5668 5666 5665 5664 5663 5662 5661 5661 5661 5660
5704 5703 5702 5702 5701 5700 5700 5699 5698 5698 5697 5696 5696 5695 5694 5692 5691 5690 5689 5687 5686 5685 5683 5681 5679 5677 5675 5673 5671 5668 5666 5664 5662 5660 5659 5657 5656 5655 5654 5653 5653 5653 5652
5696 5695 5695 5694 5693 5692 5692 5691 5691 5690 5690 5689 5689 5688 5687 5686 5684 5683 5681 5680 5679 5677 5676 5674 5672 5670 5668 5666 5664 5662 5660 5657 5656 5654 5652 5650 5649 5648 5647 5646 5645 5645 5644
5688 5688 5687 5686 5685 5684 5684 5684 5683 5683 5682 5682 5681 5680 5679 5678 5677 5676 5675 5673 5672 5670 5669 5667 5665 5663 5662 5660 5658 5655 5653 5651 5649 5648 5646 5644 5642 5641 5640 5639 5638 5637 5637
5681 5680 5679 5678 5677 5677 5677 5676 5676 5675 5675 5674 5674 5673 5672 5671 5670 5669 5668 5666 5665 5663 5661 5659 5658 5656 5654 5652 5651 5649 5647 5645 5643 5641 5639 5637 5636 5634 5633 5632 5631 5630 5629